Location: Asheville, NC
(35.6000°N, 82.5500°W)
Time: 23:11:41

RS-15 - Pass Details

Date: 10 March 2018
Orbit: 1888 x 2157 km, 64.8° (Epoch: 20 March)

Event Time Altitude Azimuth Distance (km) Brightness Sun altitude
Exits shadow 01:15:17 37° 13° (NNE) 2,982 9.0 -57.5°
Drops below altitude 10° 01:21:35 10° 26° (NNE) 4,585 10.3 -57.1°
Sets 01:25:01 0° 30° (NNE) 5,559 10.9 -56.9°
